Change the Weather History Date:

Monday, February 17, 2014

  Actual Average Record
Temperature  
Mean Temperature 52 °F -  
Max Temperature 64 °F - 80 °F (1961)
Min Temperature 39 °F - 8 °F (1958)
Degree Days  
Heating Degree Days 13    
Month to date heating degree days 329  
Since 1 July heating degree days 2088  
Moisture  
Dew Point 43 °F    
Average Humidity 65    
Maximum Humidity 82    
Minimum Humidity 53    
Precipitation  
Precipitation 0.04 in - 2.50 in (1975)
Month to date precipitation 3.24  
Year to date precipitation 4.84  
Sea Level Pressure  
Sea Level Pressure 30.16 in    
Wind  
Wind Speed 5 mph (SSW)    
Max Wind Speed 10 mph    
Max Gust Speed -    
Visibility 10 miles    
Events      
T = Trace of Precipitation, MM = Missing Value Source: NWS Daily Summary

Daily Weather History Graph

Daily Weather History Graph

Search for Another Location

Airport or City:

Trip Planner

Search our weather history database for the weather conditions in past years. The results will help you decide how hot, cold, wet, or windy it might be!

Date:

Astronomy

Feb. 17, 2014 Rise Set
Actual Time 6:22 AM CST 5:29 PM CST
Civil Twilight 5:57 AM CST 5:54 PM CST
Nautical Twilight 5:28 AM CST 6:23 PM CST
Astronomical Twilight 5:00 AM CST 6:51 PM CST
Moon 8:10 PM CST (2/17) 7:33 AM CST (2/17)
Length of Visible Light 11h 56m
Length of Day
11h 06m
Waning Gibbous, 93% of the Moon is Illuminated
Feb 17
Waning Gibbous
Feb 22
Last Quarter
Mar 1
New
Mar 8
First Quarter
Mar 16
Full

Hourly Weather History & Observations

Time (CST) Temp. Windchill Dew Point Humidity Pressure Visibility Wind Dir Wind Speed Gust Speed Precip Events Conditions
12:15 AM 44.6 °F - 32.0 °F 61% 30.15 in 10.0 mi Calm Calm - N/A   Clear
12:35 AM 46.4 °F - 32.0 °F 57% 30.15 in 10.0 mi Calm Calm - N/A   Clear
12:55 AM 44.6 °F - 32.0 °F 61% 30.15 in 10.0 mi Calm Calm - N/A   Clear
1:15 AM 42.8 °F 41.1 °F 33.8 °F 70% 30.15 in 10.0 mi SSE 3.5 mph - N/A   Clear
1:35 AM 42.8 °F 41.1 °F 33.8 °F 70% 30.15 in 10.0 mi South 3.5 mph - N/A   Clear
1:55 AM 44.6 °F 43.1 °F 32.0 °F 61% 30.15 in 10.0 mi South 3.5 mph - N/A   Clear
2:15 AM 46.4 °F - 32.0 °F 57% 30.15 in 10.0 mi Calm Calm - N/A   Clear
2:35 AM 46.4 °F 45.2 °F 32.0 °F 57% 30.15 in 10.0 mi South 3.5 mph - N/A   Clear
2:55 AM 44.6 °F - 30.2 °F 57% 30.15 in 10.0 mi Calm Calm - N/A   Clear
3:15 AM 46.4 °F - 30.2 °F 53% 30.15 in 10.0 mi Calm Calm - N/A   Clear
3:35 AM 46.4 °F - 30.2 °F 53% 30.16 in 10.0 mi Calm Calm - N/A   Clear
3:55 AM 42.8 °F 40.1 °F 30.2 °F 61% 30.15 in 10.0 mi South 4.6 mph - N/A   Clear
4:15 AM 44.6 °F 42.2 °F 32.0 °F 61% 30.15 in 10.0 mi South 4.6 mph - N/A   Clear
4:35 AM 44.6 °F 43.1 °F 32.0 °F 61% 30.16 in 10.0 mi South 3.5 mph - N/A   Clear
4:55 AM 44.6 °F 43.1 °F 32.0 °F 61% 30.18 in 10.0 mi SSW 3.5 mph - N/A   Clear
5:15 AM 42.8 °F - 32.0 °F 66% 30.18 in 10.0 mi Calm Calm - N/A   Clear
5:35 AM 41.0 °F - 32.0 °F 70% 30.18 in 10.0 mi Calm Calm - N/A   Clear
5:55 AM 41.0 °F - 32.0 °F 70% 30.18 in 10.0 mi Calm Calm - N/A   Clear
6:15 AM 39.2 °F - 32.0 °F 75% 30.18 in 10.0 mi Calm Calm - N/A   Clear
6:35 AM 39.2 °F 37.0 °F 33.8 °F 81% 30.18 in 10.0 mi SSE 3.5 mph - N/A   Clear
6:55 AM 39.2 °F 37.0 °F 33.8 °F 81% 30.19 in 10.0 mi SSE 3.5 mph - N/A   Clear
7:15 AM 42.8 °F 41.1 °F 35.6 °F 76% 30.20 in 10.0 mi SSE 3.5 mph - N/A   Clear
7:35 AM 44.6 °F 43.1 °F 35.6 °F 71% 30.20 in 10.0 mi SSE 3.5 mph - N/A   Clear
7:55 AM 46.4 °F 45.2 °F 37.4 °F 71% 30.20 in 10.0 mi SSE 3.5 mph - N/A   Clear
8:15 AM 48.2 °F - 37.4 °F 66% 30.21 in 10.0 mi South 3.5 mph - N/A   Clear
8:35 AM 48.2 °F - 39.2 °F 71% 30.21 in 10.0 mi South 3.5 mph - N/A   Clear
8:55 AM 50.0 °F - 39.2 °F 66% 30.21 in 10.0 mi South 4.6 mph - N/A   Mostly Cloudy
9:15 AM 51.8 °F - 42.8 °F 71% 30.22 in 10.0 mi SSW 4.6 mph - N/A   Overcast
9:35 AM 51.8 °F - 42.8 °F 71% 30.22 in 10.0 mi SSW 4.6 mph - N/A   Overcast
9:55 AM 53.6 °F - 44.6 °F 72% 30.21 in 10.0 mi South 5.8 mph - N/A   Mostly Cloudy
10:15 AM 55.4 °F - 46.4 °F 72% 30.21 in 10.0 mi South 4.6 mph - N/A   Partly Cloudy
10:35 AM 57.2 °F - 46.4 °F 67% 30.21 in 10.0 mi SW 3.5 mph - N/A   Clear
10:55 AM 59.0 °F - 48.2 °F 67% 30.21 in 10.0 mi SSW 4.6 mph - N/A   Scattered Clouds
11:15 AM 60.8 °F - 48.2 °F 63% 30.20 in 10.0 mi SW 8.1 mph - N/A   Scattered Clouds
11:35 AM 60.8 °F - 48.2 °F 63% 30.19 in 10.0 mi SW 3.5 mph - N/A   Partly Cloudy
11:55 AM 62.6 °F - 46.4 °F 55% 30.17 in 10.0 mi WSW 9.2 mph - N/A   Partly Cloudy
12:15 PM 62.6 °F - 46.4 °F 55% 30.17 in 10.0 mi SSW 8.1 mph - N/A   Mostly Cloudy
12:35 PM 62.6 °F - 48.2 °F 59% 30.16 in 10.0 mi SW 6.9 mph - N/A   Overcast
12:55 PM 62.6 °F - 46.4 °F 55% 30.15 in 10.0 mi SW 5.8 mph - N/A   Overcast
1:15 PM 62.6 °F - 46.4 °F 55% 30.14 in 10.0 mi SW 6.9 mph - N/A   Overcast
1:35 PM 62.6 °F - 46.4 °F 55% 30.14 in 10.0 mi SSW 8.1 mph - N/A   Overcast
1:55 PM 60.8 °F - 48.2 °F 63% 30.13 in 10.0 mi SSW 8.1 mph - N/A   Overcast
2:15 PM 62.6 °F - 48.2 °F 59% 30.13 in 10.0 mi SSW 9.2 mph - N/A   Overcast
2:35 PM 62.6 °F - 48.2 °F 59% 30.12 in 10.0 mi SSW 10.4 mph - N/A   Overcast
2:55 PM 62.6 °F - 48.2 °F 59% 30.12 in 10.0 mi South 10.4 mph - N/A   Overcast
3:15 PM 62.6 °F - 48.2 °F 59% 30.12 in 10.0 mi South 10.4 mph - N/A   Overcast
3:35 PM 62.6 °F - 48.2 °F 59% 30.11 in 10.0 mi South 10.4 mph - N/A   Overcast
3:55 PM 62.6 °F - 50.0 °F 63% 30.11 in 10.0 mi South 9.2 mph - N/A   Overcast
4:15 PM 62.6 °F - 48.2 °F 59% 30.10 in 10.0 mi South 12.7 mph - N/A   Overcast
4:35 PM 62.6 °F - 48.2 °F 59% 30.11 in 10.0 mi South 10.4 mph - N/A   Overcast
4:55 PM 62.6 °F - 48.2 °F 59% 30.11 in 10.0 mi South 9.2 mph - N/A   Overcast
5:15 PM 62.6 °F - 48.2 °F 59% 30.11 in 10.0 mi South 10.4 mph - N/A   Overcast
5:35 PM 60.8 °F - 48.2 °F 63% 30.12 in 10.0 mi South 6.9 mph - N/A   Overcast
5:55 PM 60.8 °F - 48.2 °F 63% 30.13 in 10.0 mi SSW 5.8 mph - N/A   Overcast
6:15 PM 60.8 °F - 48.2 °F 63% 30.12 in 10.0 mi South 6.9 mph - N/A   Overcast
6:35 PM 60.8 °F - 48.2 °F 63% 30.14 in 10.0 mi South 6.9 mph - N/A   Overcast
6:55 PM 60.8 °F - 48.2 °F 63% 30.13 in 10.0 mi South 4.6 mph - N/A   Mostly Cloudy
7:15 PM 60.8 °F - 48.2 °F 63% 30.13 in 10.0 mi South 6.9 mph - N/A   Mostly Cloudy
7:35 PM 60.8 °F - 48.2 °F 63% 30.13 in 10.0 mi South 10.4 mph - N/A   Overcast
7:55 PM 60.8 °F - 48.2 °F 63% 30.13 in 10.0 mi South 8.1 mph - N/A   Overcast
8:15 PM 60.8 °F - 48.2 °F 63% 30.13 in 10.0 mi South 9.2 mph - N/A   Overcast
8:35 PM 59.0 °F - 48.2 °F 67% 30.14 in 10.0 mi South 9.2 mph - N/A   Mostly Cloudy
8:55 PM 59.0 °F - 48.2 °F 67% 30.14 in 10.0 mi SSW 8.1 mph - N/A   Mostly Cloudy
9:15 PM 59.0 °F - 48.2 °F 67% 30.14 in 10.0 mi South 8.1 mph - N/A   Mostly Cloudy
9:35 PM 59.0 °F - 50.0 °F 72% 30.14 in 10.0 mi SSW 8.1 mph - N/A   Overcast
9:55 PM 59.0 °F - 50.0 °F 72% 30.14 in 10.0 mi South 9.2 mph - N/A   Overcast
10:15 PM 59.0 °F - 50.0 °F 72% 30.14 in 10.0 mi SSW 8.1 mph - N/A   Overcast
10:35 PM 59.0 °F - 51.8 °F 77% 30.14 in 10.0 mi SSW 8.1 mph - N/A   Overcast
10:55 PM 59.0 °F - 51.8 °F 77% 30.14 in 10.0 mi SSW 9.2 mph - N/A   Overcast
11:15 PM 57.2 °F - 51.8 °F 82% 30.14 in 10.0 mi SSW 10.4 mph - N/A   Overcast
11:35 PM 59.0 °F - 53.6 °F 82% 30.15 in 10.0 mi West 6.9 mph - 0.03 in   Overcast
11:55 PM 59.0 °F - 53.6 °F 82% 30.14 in 10.0 mi WSW 8.1 mph - 0.04 in   Mostly Cloudy